Regional Weather Roundup
Issued by NWS Wakefield, VA

Home | Current Version | Previous Version | Text Only | Print | Product List | Glossary Off
Versions: 1 2 3 4 5 6 7 8 9 10 11 12 13 14 15 16 17 18 19 20 21 22 23 24 25 26 27 28 29 30 31 32 33 34 35 36 37 38 39 40 41 42 43 44 45 46 47 48 49 50
000 ASUS41 KAKQ 011110 RWRAKQ REGIONAL WEATHER ROUNDUP NATIONAL WEATHER SERVICE WAKEFIELD VA 700 AM EDT MON SEP 01 2014 Note: "fair" indicates few or no clouds below 12,000 feet with no significant weather and/or obstructions to visibility. * = Denotes station may not report precipitation (e.g., rain,snow,etc.), thunder or fog. VAZ042-051-052>054-056-011200- NORTHERN VIRGINIA CITY SKY/WX TMP DP RH WIND PRES REMARKS WASH NATIONAL CLOUDY 77 72 84 S3 30.05R DULLES LGT RAIN 72 71 97 CALM 30.04R FORT BELVOIR CLOUDY 73 72 97 E1 30.05R QUANTICO CLOUDY 76 73 91 S14 30.05S FREDERICKSBRG* LGT RAIN 75 75 100 SE5 30.04F STAFFORD* LGT RAIN 73 73 100 CALM 30.09S WARRENTON CLOUDY 73 73 100 CALM 30.04S CULPEPER* CLOUDY N/A N/A N/A CALM 30.05S MANASSAS* CLOUDY 73 73 100 S6 30.04S LEESBURG* MOCLDY 72 72 100 CALM 30.05S WINCHESTER DRIZZLE 72 70 94 SW3 30.05R $$ VAZ048-049-060>072-079>083-011200- CENTRAL AND SOUTH CENTRAL VIRGINIA...AND NORTH CENTRAL NORTH CAROLINA CITY SKY/WX TMP DP RH WIND PRES REMARKS RICHMOND CLOUDY 75 72 90 S3 30.07R CHESTERFIELD* MOSUNNY N/A N/A N/A SW3 30.08R PETERSBURG* PTCLDY 73 71 93 CALM 30.08R HANOVER CLOUDY 77 73 87 SW6 30.08R TAPPAHANNOCK* MOCLDY 76 71 86 SW3 30.07R CHARLOTTSVILLE CLOUDY 73 70 90 S6 30.05S ORANGE* CLOUDY 72 70 94 S3 30.06S LOUISA* LGT RAIN 73 72 94 S3 30.06F FARMVILLE* MOCLDY 73 73 100 S3 30.06S SOUTH HILL* N/A 73 73 100 S5 30.14R ROANOKE RAPIDS SUNNY 72 72 100 S5 30.09R RALEIGH MOCLDY 74 71 91 SW6 30.11R $$ VAZ088>098-011200- SOUTHEAST VIRGINIA CITY SKY/WX TMP DP RH WIND PRES REMARKS NORFOLK CLEAR 76 73 91 SW10 30.07R VIRGINIA BEACH MOCLDY 76 74 93 SW12 30.07R NORFOLK NAVAL PTCLDY 78 74 87 SW9 30.09R WEST POINT* PTCLDY 78 73 84 CALM 30.08R NEWPORT NEWS MOCLDY 80 73 79 SW7 30.07R LANGLEY AFB CLEAR 77 76 98 W12 30.07R FORT EUSTIS PTCLDY 75 N/A N/A SW3 30.06R WILLIAMSBURG* CLEAR 79 73 83 CALM 30.08S FRANKLIN* PTCLDY 73 73 100 S5 30.09S WAKEFIELD CLEAR 75 72 90 SW3 30.08R $$ VAZ020-022-025-037-045-011200- WESTERN AND SOUTHWEST VIRGINIA CITY SKY/WX TMP DP RH WIND PRES REMARKS STAUNTON* CLOUDY 73 67 80 S7 30.10S HOT SPRINGS VA CLOUDY 64 63 97 W10 30.23S LYNCHBURG CLOUDY 69 69 100 S6 30.11R DANVILLE MOCLDY 73 70 90 SW3 30.10R MARTINSVILLE MOCLDY 69 69 100 CALM 30.14S ROANOKE MOCLDY 74 68 81 W5 30.12S BLACKSBURG MOCLDY 70 70 100 NW3 30.18S DUBLIN* MOCLDY 70 69 96 CALM 30.18S MARION* MOCLDY N/A N/A N/A W8 30.22R HILLSVILLE* LGT RAIN 67 65 93 S5 30.20R RICHLANDS* MOSUNNY 71 66 82 SW9 30.19S WISE* PTCLDY 68 66 94 SW7 30.21R ABINGDON* CLOUDY 70 70 99 CALM 30.18S FOG $$ MDZ021>025-VAZ099-100-011200- SOUTHERN MARYLAND AND THE DELMARVA PENINSULA CITY SKY/WX TMP DP RH WIND PRES REMARKS PATUXENT RIVER CLOUDY 75 72 90 SW6 30.04R BAY BRIDGE APT LGT RAIN 73 73 100 CALM 30.04R LEONARDTOWN CLOUDY 73 70 88 CALM 30.06R DOVER MOCLDY 73 73 100 CALM 30.02R GEORGETOWN CLOUDY 76 74 93 S8 30.04R EASTON MOCLDY 75 75 100 CALM 30.07R CAMBRIDGE CLOUDY 77 73 88 CALM 30.03R SALISBURY MOCLDY 78 74 87 SW5 30.05R OCEAN CITY CLOUDY 78 75 90 SW6 30.05R WALLOPS ISLAND MOCLDY 78 74 87 W7 30.06R ACCOMACK* NOT AVBL $$ NCZ012>017-030>032-011200- EASTERN NORTH CAROLINA CITY SKY/WX TMP DP RH WIND PRES REMARKS ELIZABETH CITY MOCLDY 77 75 93 SW8 30.10R AHOSKIE* MOCLDY 73 72 96 S3 30.10R EDENTON* MOCLDY 77 75 95 SW7 30.11R CURRITUCK* PTCLDY 77 74 91 SW6 30.10S KILL DEVIL HLS CLEAR 78 76 92 SW6 30.09S MANTEO PTCLDY 78 75 92 SW7 30.11S CAPE HATTERAS CLEAR 79 75 87 W9 30.11R GOLDSBORO PTCLDY 74 74 99 SE2 30.10R WASHINGTON PTCLDY 75 73 95 CALM 30.12R GREENVILLE PTCLDY 73 73 100 SW3 30.12S NEW BERN CLEAR 76 73 91 CALM 30.13R WILMINGTON CLEAR 74 73 97 S3 30.11R $$ VAZ048-011200- ELSEWHERE CITY SKY/WX TMP DP RH WIND PRES REMARKS HARRISBURG PA CLOUDY 72 70 93 NE3 30.02R BALTIMORE CLOUDY 73 72 96 CALM 30.03R FOG ANNAPOLIS CLOUDY 75 72 90 CALM 30.03R ANDREWS AFB CLOUDY 73 73 99 SW6 30.05R WILMINGTON DE CLOUDY 74 72 93 CALM 30.03S PHILADELPHIA CLOUDY 74 72 93 SW5 30.03R WILDWOOD NJ* CLOUDY 73 70 88 CALM 30.05R ATLANTIC CITY CLOUDY 73 72 96 CALM 30.03R HENDERSON NC PTCLDY 73 71 93 SW6 30.10R GREENSBORO PTCLDY 71 70 96 SW5 30.12R ROCKY MOUNT CLOUDY 75 73 93 S3 30.10S FAYETTEVILLE CLEAR 74 73 97 SW5 30.11R CHARLOTTE MOCLDY 72 69 90 CALM 30.13R $$ VAZ100-011200- MARINE STATION/POSITION TIME TEMP WIND PRES WAVE SWELL AIR SEA DIR/SP/G HT/PER HT/PER (UTC) (F) (DEG/KT/KT) (MB) (FT/S) (FT/S) 44066 TX TWR #4 1100 72 73 170/ 8/ 10 1016.7F 5/ 6 5/ 6 CAPE MAY NJ 1100 75 80 CALM / 1 1016.7R LEWES DE 1100 76 76 240/ 2/ 2 1016.8S 15NM E FENWICK I 1100 76 74 1017.1R 4/ 5 OCEAN-CITY-INLET 1100 78 78 240/ 6/ 8 1016.9R WACHAPREAGUE VA 1100 76 81 220/ 3/ 5 1018.0S THOMAS POINT MD 1100 76 78 260/ 2/ 3 1018.1R GOOSES REEF MD 1100 78 260/ 10/ 12 1017.4R COVE POINT MD 1100 76 240/ 9/ 12 1016.9R SOLOMONS ISLAND 1100 80 N/A BISHOPS HEAD MD 1100 79 79 250/ 11/ 12 1016.9S PINEY POINT MD 1100 270/ 9/ 11 N/A POTOMAC MD 1100 78 250/ 10/ 12 1016.5R CAMBRIDGE MD 1100 76 79 210/ 1/ 3 1016.8R LEWISETTA VA 1100 77 80 250/ 8/ 10 1017.1R RAPPAHANNOCK LGT 1100 220/ 10/ 11 1018.5R STINGRAY PT 1100 78 240/ 10/ 14 N/A YORK RVR RNG VA 1100 78 240/ 11/ 14 1017.6S YORKTOWN VA 1100 77 80 220/ 10/ 12 1017.6F JAMESTOWN VA 1100 75 250/ 4/ 8 N/A DOMINION TERM VA 1100 78 230/ 13/ 14 1018.3S KIPTOPEKE VA 1100 82 240/ 14/ 16 N/A CHES BAY BRIDGE 1100 78 80 200/ 13/ 16 1017.8R CAPE HENRY VA 1100 77 220/ 9/ 14 1017.2R CHESAPEAKE LGHT 1000 78 220/ 17/ 18 1018.8R WILLOUBY STN VA 1100 77 210/ 12/ 15 1017.1R S CRANEY ISL VA 1100 220/ 7/ 11 1018.1S CAPE HENRY BUOY 1100 78 N/A 3/ 9 1ST LANDING BUOY 1100 79 230/ 16/ 19 1018.1R CAPE CHARLES BUO 1100 78 N/A 3/ 9 2/ 9 OFFSHORE WE BUOY 1100 76 N/A 3/ 8 2/ 8 64NM E OF VA BCH 1100 77 76 200/ 10/ 12 1018.6R 3/ 9 2/ 9 DUCK PIER NC 1100 79 75 220/ 10/ 12 1018.4S 44056 DUCK FRF 1100 N/A 2/ 8 OREGON INLET NC 1100 80 82 220/ 9/ 10 1019.4S HATTERAS NC 1100 81 84 230/ 8/ 12 1020.1S DIAMOND SHLS NC 1100 81 210/ 14/ 17 1019.6R 4/ 8 2/ 8 CAPE LOOKOUT NC 1000 80 230/ 7/ 10 1019.4R $$

USA.gov is the U.S. government's official web portal to all federal, state and local government web resources and services.